FALCON 9 DEB (53753 NORAD) Tracking and Keplerian Element Data

This shows tracking and keplerian element data for the satellite.

Feedback or suggestion? Click here.




ElementValue
Catalog53753
NameFALCON 9 DEB
Epoch Orbit589
Epoch Day284.85939704
Epoch Year2022
RAAN85.1097
Inclination53.1927
Eccentricity0.0010087
Argument of Perigee317.7487
Mean Anonmoly42.2778
Mean Motion16.25862806
Decay Rate0.0294547
L11 53753U 22107BF 22284.85939704 .02945470 11982-4 90537-3 0 9991
L22 53753 53.1927 85.1097 0010087 317.7487 42.2778 16.25862806 5891



Live tracking and technical data element details for FALCON 9 DEB (NORAD 53753). FALCON 9 DEB can be tracked NOW for your location showing map with azimuth and elevation plus other details from your city location.







IsCatalogInMostPopularTable: catalog: 53753, numindb: -1

Insert: records affected: 1


GetName: 53753 FALCON 9 DEB

Hit Count: inserted at: Mon, 28 Nov 2022 05:53:52 GMT